Weather History for Escanaba, MI

Change the Weather History Date:

Monday, July 14, 2014

  Actual Average Record
Temperature  
Mean Temperature 60 °F -  
Max Temperature 68 °F 74 °F 95 °F (1983)
Min Temperature 51 °F 57 °F 46 °F (1950)
Degree Days  
Heating Degree Days 4    
Growing Degree Days 10 (Base 50)    
Moisture  
Dew Point 51 °F    
Average Humidity 75    
Maximum Humidity 88    
Minimum Humidity 56    
Precipitation  
Precipitation 0.00 in - - ()
Sea Level Pressure  
Sea Level Pressure 29.81 in    
Wind  
Wind Speed 4 mph (North)    
Max Wind Speed 13 mph    
Max Gust Speed -    
Visibility 10 miles    
Events Thunderstorm    
Averages and records for this station are not official NWS values.
T = Trace of Precipitation, MM = Missing Value Source: NWS Daily Summary

Daily Weather History Graph

Daily Weather History Graph

Search for Another Location

Airport:

Trip Planner

Search our weather history database for the weather conditions in past years. The results will help you decide how hot, cold, wet, or windy it might be!

Date:

Astronomy

Jul. 14, 2014 Rise Set
Actual Time 6:12 AM EDT 9:35 PM EDT
Civil Twilight 5:35 AM EDT 10:12 PM EDT
Nautical Twilight 4:47 AM EDT 11:00 PM EDT
Astronomical Twilight 3:45 AM EDT 12:01 AM EDT
Moon 10:52 PM EDT (7/14) 9:05 AM EDT (7/14)
Length of Visible Light 16h 36m
Length of Day
15h 23m
Waning Gibbous, 93% of the Moon is Illuminated
Jul 14
Waning Gibbous
Jul 18
Last Quarter
Jul 26
New
Aug 3
First Quarter
Aug 10
Full

Hourly Weather History & Observations

Time (EDT) Temp. Dew Point Humidity Pressure Visibility Wind Dir Wind Speed Gust Speed Precip Events Conditions
12:15 AM 57.2 °F 51.8 °F 82% 29.83 in 10.0 mi WNW 4.6 mph - N/A   Overcast
12:35 AM 59.0 °F 51.8 °F 77% 29.83 in 10.0 mi Calm Calm - N/A   Overcast
12:55 AM 57.2 °F 51.8 °F 82% 29.83 in 10.0 mi WNW 4.6 mph - N/A   Overcast
1:35 AM 57.2 °F 51.8 °F 82% 29.82 in 10.0 mi West 3.5 mph - N/A   Overcast
1:55 AM 55.4 °F 51.8 °F 88% 29.82 in 10.0 mi West 4.6 mph - N/A   Mostly Cloudy
2:15 AM 55.4 °F 51.8 °F 88% 29.82 in 10.0 mi WNW 3.5 mph - N/A   Mostly Cloudy
2:35 AM 55.4 °F 50.0 °F 82% 29.81 in 10.0 mi Calm Calm - N/A   Mostly Cloudy
2:55 AM 55.4 °F 50.0 °F 82% 29.81 in 10.0 mi Calm Calm - N/A   Mostly Cloudy
3:15 AM 53.6 °F 48.2 °F 82% 29.80 in 10.0 mi WNW 4.6 mph - N/A   Mostly Cloudy
3:35 AM 55.4 °F 48.2 °F 77% 29.80 in 10.0 mi West 4.6 mph - N/A   Partly Cloudy
3:55 AM 55.4 °F 48.2 °F 77% 29.80 in 10.0 mi Calm Calm - N/A   Mostly Cloudy
4:15 AM 53.6 °F 48.2 °F 82% 29.80 in 10.0 mi Calm Calm - N/A   Overcast
4:35 AM 53.6 °F 48.2 °F 82% 29.80 in 10.0 mi Calm Calm - N/A   Mostly Cloudy
4:55 AM 53.6 °F 48.2 °F 82% 29.80 in 10.0 mi Calm Calm - N/A   Mostly Cloudy
5:15 AM 53.6 °F 48.2 °F 82% 29.80 in 10.0 mi Calm Calm - N/A   Overcast
5:35 AM 53.6 °F 48.2 °F 82% 29.80 in 10.0 mi Calm Calm - N/A   Overcast
5:55 AM 53.6 °F 48.2 °F 82% 29.80 in 10.0 mi South 3.5 mph - N/A   Overcast
6:15 AM 53.6 °F 48.2 °F 82% 29.80 in 10.0 mi Calm Calm - N/A   Overcast
6:35 AM 53.6 °F 48.2 °F 82% 29.80 in 10.0 mi Calm Calm - N/A   Mostly Cloudy
6:55 AM 53.6 °F 48.2 °F 82% 29.81 in 10.0 mi Calm Calm - N/A   Overcast
7:15 AM 53.6 °F 48.2 °F 82% 29.81 in 10.0 mi Calm Calm - N/A   Overcast
7:35 AM 55.4 °F 50.0 °F 82% 29.81 in 10.0 mi Calm Calm - N/A   Overcast
7:55 AM 55.4 °F 50.0 °F 82% 29.82 in 10.0 mi West 3.5 mph - N/A   Overcast
8:15 AM 55.4 °F 50.0 °F 82% 29.81 in 10.0 mi Calm Calm - N/A   Overcast
8:35 AM 55.4 °F 51.8 °F 88% 29.82 in 10.0 mi WSW 3.5 mph - N/A   Overcast
8:55 AM 57.2 °F 51.8 °F 82% 29.81 in 10.0 mi Calm Calm - N/A   Overcast
9:15 AM 57.2 °F 51.8 °F 82% 29.82 in 10.0 mi North 5.8 mph - N/A   Overcast
9:55 AM 60.8 °F 53.6 °F 77% 29.81 in 10.0 mi North 4.6 mph - N/A   Overcast
10:15 AM 60.8 °F 51.8 °F 72% 29.81 in 10.0 mi NE 3.5 mph - N/A   Overcast
10:35 AM 62.6 °F 51.8 °F 68% 29.82 in 10.0 mi North 4.6 mph - N/A   Overcast
10:55 AM 62.6 °F 53.6 °F 72% 29.82 in 10.0 mi North 4.6 mph - N/A   Overcast
11:15 AM 62.6 °F 53.6 °F 72% 29.82 in 10.0 mi Calm Calm - N/A   Overcast
11:35 AM 64.4 °F 53.6 °F 68% 29.82 in 10.0 mi North 3.5 mph - N/A   Overcast
11:55 AM 64.4 °F 53.6 °F 68% 29.82 in 10.0 mi NE 3.5 mph - N/A   Scattered Clouds
12:15 PM 66.2 °F 55.4 °F 68% 29.82 in 10.0 mi East 5.8 mph - N/A   Clear
12:35 PM 66.2 °F 55.4 °F 68% 29.82 in 10.0 mi ESE 8.1 mph - N/A   Clear
12:55 PM 66.2 °F 53.6 °F 64% 29.81 in 10.0 mi ESE 6.9 mph - N/A   Clear
1:15 PM 68.0 °F 51.8 °F 56% 29.80 in 10.0 mi SE 11.5 mph - N/A   Scattered Clouds
1:35 PM 66.2 °F 50.0 °F 56% 29.80 in 10.0 mi SE 10.4 mph - N/A   Overcast
1:55 PM 66.2 °F 53.6 °F 64% 29.79 in 10.0 mi SSE 11.5 mph - N/A   Overcast
2:15 PM 66.2 °F 53.6 °F 64% 29.78 in 10.0 mi SE 11.5 mph - N/A   Overcast
2:35 PM 68.0 °F 53.6 °F 60% 29.77 in 10.0 mi SE 12.7 mph - N/A   Overcast
2:55 PM 66.2 °F 50.0 °F 56% 29.79 in 10.0 mi SE 9.2 mph - N/A   Mostly Cloudy
3:15 PM 66.2 °F 53.6 °F 64% 29.78 in 10.0 mi SSE 10.4 mph - N/A Thunderstorm Mostly Cloudy
3:35 PM 64.4 °F 53.6 °F 68% 29.80 in 10.0 mi SSW 8.1 mph - N/A   Overcast
4:15 PM 59.0 °F 53.6 °F 82% 29.82 in 10.0 mi NNW 8.1 mph - N/A   Overcast
4:55 PM 62.6 °F 53.6 °F 72% 29.81 in 10.0 mi NNW 5.8 mph - N/A   Mostly Cloudy
5:35 PM 62.6 °F 50.0 °F 63% 29.81 in 10.0 mi NW 6.9 mph - N/A   Scattered Clouds
5:55 PM 60.8 °F 51.8 °F 72% 29.82 in 10.0 mi WNW 6.9 mph - N/A   Mostly Cloudy
6:15 PM 60.8 °F 51.8 °F 72% 29.82 in 10.0 mi North 4.6 mph - N/A   Mostly Cloudy
6:35 PM 60.8 °F 51.8 °F 72% 29.82 in 10.0 mi North 6.9 mph - N/A   Mostly Cloudy
6:55 PM 60.8 °F 51.8 °F 72% 29.82 in 10.0 mi North 5.8 mph - N/A   Overcast
7:15 PM 60.8 °F 53.6 °F 77% 29.82 in 10.0 mi North 8.1 mph - N/A   Overcast
7:35 PM 60.8 °F 53.6 °F 77% 29.82 in 10.0 mi North 6.9 mph - N/A   Mostly Cloudy
7:55 PM 60.8 °F 51.8 °F 72% 29.82 in 10.0 mi NNE 5.8 mph - N/A   Partly Cloudy
8:15 PM 60.8 °F 51.8 °F 72% 29.82 in 10.0 mi NNE 8.1 mph - N/A   Clear
8:35 PM 60.8 °F 51.8 °F 72% 29.82 in 10.0 mi North 5.8 mph - N/A   Partly Cloudy
8:55 PM 59.0 °F 50.0 °F 72% 29.83 in 10.0 mi North 5.8 mph - N/A   Partly Cloudy
9:15 PM 57.2 °F 48.2 °F 72% 29.83 in 10.0 mi North 6.9 mph - N/A   Clear
9:35 PM 57.2 °F 48.2 °F 72% 29.83 in 10.0 mi North 4.6 mph - N/A   Clear
9:55 PM 55.4 °F 48.2 °F 77% 29.84 in 10.0 mi North 6.9 mph - N/A   Scattered Clouds
10:15 PM 55.4 °F 48.2 °F 77% 29.84 in 10.0 mi North 6.9 mph - N/A   Partly Cloudy
10:35 PM 53.6 °F 48.2 °F 82% 29.84 in 10.0 mi North 5.8 mph - N/A   Clear
10:55 PM 53.6 °F 48.2 °F 82% 29.84 in 10.0 mi North 5.8 mph - N/A   Clear
11:15 PM 53.6 °F 46.4 °F 77% 29.84 in 10.0 mi North 6.9 mph - N/A   Clear
11:35 PM 53.6 °F 46.4 °F 77% 29.84 in 10.0 mi North 8.1 mph - N/A   Clear
11:55 PM 51.8 °F 46.4 °F 82% 29.84 in 10.0 mi North 6.9 mph - N/A   Clear